Location: Kuffner-Sternwarte
(48.2130°N, 16.2960°E)
Time: 05:05:59
(UTC+01:00)

COROT - Pass Details

Date: 21 May 2017
Orbit: 602 x 887 km, 90.0° (Epoch: 24 November)

Event Time Altitude Azimuth Distance (km) Brightness Sun altitude
Rises 21:04:24 0° 8° (N) 3,238 9.7 -4.8°
Reaches altitude 10° 21:07:01 10° 17° (NNE) 2,258 8.7 -5.1°
Maximum altitude 21:11:34 35° 83° (E) 1,131 6.6 -5.7°
Drops below altitude 10° 21:15:46 10° 149° (SSE) 2,083 7.7 -6.2°
Enters shadow 21:16:46 - 154° (SSE) 2,449 8.0 -6.4°
